User: anonymous   Login
Location: Unspecified
(0.0000°N, 0.0000°E)
Time: 03:12:55
(UTC+00:00)
Language:

ATS 3 - Orbit

View from above orbital plane
View from above orbital plane
View from above satellite
View from above satellite

Ground track
Ground track

The orbit data is extracted from the following two-line orbital elements,

1  3029U 67111A   18147.49060153 -.00000100 +00000-0 +00000-0 0  9991
2  3029 004.0427 295.1826 0014957 125.3503 255.7830 01.00272067185134
Epoch (UTC): 27 May 2018 11:46:27
Eccentricity: 0.0014957
inclination: 4.0427°
perigee height: 35723 km
apogee height: 35849 km
right ascension of ascending node: 295.1826°
argument of perigee: 125.3503°
revolutions per day: 1.00272067
mean anomaly at epoch: 255.7830°
orbit number at epoch: 18513

The dashed part of the orbit path shows where the satellite is in the earth's shadow,  

DLR